Temperature
19 19 19 19 17 17 18 18 18 18 18 18 18 18 17 17 17 17 17 17 17 17 17 17 17 17 17 17 17 17 17 17 17 17 17 17 17 17 17 17 17 17 17 17 17 17 17 17 17
19 19 19 19 17 17 18 18 18 19 19 18 18 18 17 16 16 17 17 17 17 17 17 17 17 17 17 17 17 17 17 17 16 16 16 17 17 17 17 17 17 17 17 17 17 17 17 17 17
19 19 19 16 17 17 19 19 18 19 19 18 17 17 17 16 17 17 17 17 17 17 17 17 17 17 17 17 17 17 17 16 16 16 16 16 16 16 16 16 17 17 17 17 17 17 17 17 17
19 19 19 17 18 18 18 18 18 19 19 18 17 17 17 16 17 17 17 17 17 17 17 17 17 17 17 17 16 16 16 16 16 16 16 16 16 16 16 16 16 16 17 17 16 16 16 17 16
20 19 17 17 18 18 18 18 18 18 18 18 17 16 16 16 17 17 17 17 17 17 17 17 17 17 17 16 16 16 16 16 16 16 16 16 16 16 16 16 16 16 16 16 16 16 16 16 16
20 17 16 17 18 18 18 19 19 18 18 18 17 16 16 17 17 17 17 17 17 17 17 16 16 16 16 16 16 16 16 16 16 16 16 16 16 16 16 16 16 16 16 16 16 16 16 16 16
19 16 17 18 18 18 19 19 18 18 18 18 17 16 16 16 17 17 17 16 16 16 16 16 16 16 16 16 16 16 16 16 16 16 16 16 16 16 16 16 16 16 16 16 16 16 16 16 16
20 16 17 17 18 18 19 19 19 18 18 18 18 17 16 17 17 16 16 16 16 16 16 16 16 16 16 16 16 16 16 16 16 16 16 16 16 16 16 15 15 16 16 16 16 16 16 16 16
20 16 17 18 18 18 19 19 19 18 18 18 17 17 17 17 17 16 16 16 16 16 16 16 16 16 16 16 16 16 16 16 16 16 16 16 16 16 15 15 15 15 16 16 16 16 16 16 16
19 16 18 18 18 18 19 19 19 18 18 17 17 17 17 17 17 16 16 16 16 16 16 16 16 16 16 16 16 16 16 16 16 16 16 16 16 16 15 15 15 15 15 15 15 15 16 16 16
19 18 18 19 19 19 19 19 19 18 17 18 18 17 17 17 17 16 16 16 16 16 16 16 16 16 16 16 16 16 16 16 16 16 16 15 15 15 15 15 15 15 15 15 15 15 15 15 15
18 18 19 19 20 19 19 19 18 18 18 19 18 18 17 17 17 17 17 16 16 16 16 16 16 16 16 16 16 16 16 16 16 16 15 15 15 15 15 15 15 15 15 15 15 15 15 15 15
19 19 19 19 19 19 19 18 18 18 19 19 18 18 17 17 17 17 17 16 16 16 16 16 16 16 16 16 16 16 16 16 16 15 15 15 15 15 15 15 15 15 15 15 15 15 15 15 15
19 19 19 19 19 19 18 18 18 18 18 18 18 18 17 17 17 17 17 17 16 16 16 16 16 16 16 16 16 16 16 15 15 15 15 15 15 15 15 15 15 15 15 15 15 15 15 15 15
19 18 18 18 19 19 19 18 17 18 18 18 18 18 17 17 17 17 17 17 17 16 16 16 16 16 16 16 16 16 15 15 15 15 15 15 15 15 15 15 15 15 15 15 15 15 15 15 15
19 18 18 18 18 19 18 17 17 18 18 17 17 17 17 17 17 17 17 17 17 16 16 16 16 16 16 16 16 15 15 15 15 15 15 15 15 15 15 15 15 15 15 15 15 15 15 15 15
18 17 18 18 18 18 18 17 17 18 17 17 17 17 17 17 17 17 17 17 16 16 16 16 16 16 16 15 15 15 15 15 15 15 15 15 15 15 15 15 15 15 15 15 15 15 15 15 15
18 18 18 18 18 18 17 17 17 17 17 17 17 17 17 17 17 17 17 17 16 16 16 16 16 15 15 15 15 15 15 15 15 15 15 15 15 15 15 15 15 15 15 15 15 15 15 15 14
18 18 18 18 18 18 17 17 17 17 16 16 16 17 17 17 17 17 17 17 16 16 16 16 16 15 15 15 15 15 15 15 15 15 15 15 15 15 15 15 15 15 15 15 15 15 15 15 14
18 18 18 18 18 18 17 17 17 16 16 17 17 17 17 17 17 17 17 16 16 16 16 16 16 15 15 15 15 15 15 15 15 15 15 15 15 15 15 15 15 15 15 15 15 15 15 14 14
19 18 18 18 18 18 18 17 17 16 17 17 17 17 17 17 17 17 17 17 16 16 16 16 16 16 15 15 15 15 15 15 15 15 15 15 15 15 15 15 15 15 15 15 15 15 15 15 15
18 19 19 18 17 16 17 16 16 16 16 16 17 17 17 17 17 17 17 17 17 16 16 16 16 16 16 15 15 15 15 15 15 15 15 15 15 15 15 15 15 15 15 15 15 15 15 15 15
19 19 18 18 17 16 16 16 16 16 16 16 16 17 17 18 18 18 17 17 17 16 16 16 16 16 16 16 15 15 15 15 15 15 15 15 15 15 15 15 15 15 15 15 15 15 15 15 15
19 18 17 15 15 16 17 16 16 15 17 17 17 18 18 18 18 18 17 17 17 17 16 16 16 16 16 16 15 15 15 15 15 15 15 15 15 15 15 15 15 15 15 15 15 15 15 15 15
18 17 16 16 15 16 17 16 16 17 17 17 17 18 18 18 18 18 17 17 17 17 17 16 16 16 16 16 16 15 15 15 15 15 15 15 15 15 15 15 15 15 15 15 15 15 15 15 15
18 17 16 17 16 16 16 16 17 18 18 19 19 19 19 18 18 18 18 18 17 17 17 17 17 16 16 16 16 16 16 16 15 15 15 15 15 15 15 15 15 15 15 15 15 14 15 15 14
18 16 16 15 16 16 16 17 17 18 18 18 18 18 18 18 18 18 18 18 17 17 17 17 17 17 16 16 16 16 16 16 16 15 15 15 15 15 15 15 15 15 14 14 14 14 14 14 14
18 16 15 16 16 16 17 17 16 18 18 17 17 18 19 19 19 18 18 18 18 18 17 17 17 17 16 16 16 16 16 16 16 16 15 15 15 15 15 15 15 14 14 14 14 14 14 14 14
18 17 15 14 15 15 16 16 17 17 18 17 17 18 19 19 19 19 18 18 18 17 17 17 17 17 16 16 16 16 16 16 16 16 15 15 15 15 15 15 14 14 14 14 14 14 14 14 14
18 17 16 16 16 15 15 16 18 18 18 18 18 19 19 19 19 19 19 18 18 18 17 17 17 17 17 16 16 16 16 16 16 16 15 15 15 15 15 15 14 14 14 14 14 14 14 14 14
Wind_Speed
1 3 3 4 5 5 2 2 1 1 2 2 4 5 6 4 2 2 0 2 2 1 2 3 5 5 6 7 8 8 9 9 9 9 9 9 9 9 9 9 9 9 9 9 9 9 10 10 10
2 2 4 4 5 3 2 2 1 1 3 3 4 4 5 4 3 3 1 1 2 2 2 3 5 5 6 7 8 8 9 8 8 8 8 9 8 8 8 9 9 9 9 9 9 9 9 10 10
2 3 4 4 4 2 1 1 1 3 4 2 3 4 4 3 2 2 1 2 2 3 3 3 5 6 6 7 8 8 7 7 7 8 8 8 8 8 8 9 8 8 8 9 9 9 9 9 10
3 4 5 5 3 1 1 1 0 2 4 4 3 4 3 2 1 3 3 3 3 3 3 3 5 5 6 6 7 7 7 7 8 8 8 7 8 8 8 9 8 8 9 9 9 9 9 9 10
4 4 5 4 2 2 1 1 1 2 2 3 3 4 3 3 4 5 4 4 3 2 2 3 5 5 5 5 6 7 7 7 7 7 7 7 7 8 7 8 8 8 9 9 9 9 9 9 9
4 4 5 2 2 3 2 1 2 3 3 3 4 4 2 2 3 4 4 3 2 2 2 2 4 4 4 5 6 7 7 7 7 7 7 7 7 7 8 8 8 8 8 9 9 9 9 9 9
4 4 3 2 1 2 1 2 2 2 2 2 3 4 2 1 2 4 4 4 3 3 3 4 4 4 3 4 5 6 6 6 7 7 7 7 7 8 8 8 8 7 7 8 9 9 9 10 9
4 5 3 1 1 1 1 1 2 2 2 2 3 5 4 3 4 5 5 4 4 3 3 4 4 5 5 5 5 6 6 7 7 7 7 7 8 8 8 7 8 8 8 8 9 9 10 10 11
4 5 2 2 3 1 1 2 2 2 4 3 2 1 3 8 7 7 4 3 3 2 3 3 3 4 5 4 5 6 7 7 8 7 7 7 7 6 6 7 8 8 8 9 9 9 10 10 11
4 3 2 2 3 3 1 2 2 2 3 2 3 4 7 8 8 7 5 3 1 0 1 1 2 3 4 4 5 6 6 7 7 6 7 7 6 6 6 8 9 9 9 9 10 10 10 9 9
3 3 1 0 1 3 2 2 1 3 1 3 4 6 8 8 7 6 5 3 2 1 1 0 1 1 2 3 4 4 5 5 6 6 6 7 6 6 7 8 8 9 9 8 9 9 8 8 8
3 1 1 1 1 2 3 2 2 1 2 3 5 8 8 8 7 7 5 3 2 2 2 1 1 1 2 3 3 3 3 3 4 4 5 5 4 4 5 5 6 6 6 7 7 7 8 8 8
2 1 1 2 3 3 4 3 2 1 1 5 7 7 6 6 5 4 4 3 3 2 2 1 2 2 2 2 2 2 2 2 3 3 4 4 3 2 3 4 5 5 6 5 5 6 7 7 7
1 3 2 3 3 2 4 2 2 2 2 6 7 6 5 5 5 4 4 4 3 3 2 2 2 2 3 2 2 2 2 3 4 4 3 4 3 3 3 3 3 4 5 5 6 6 6 5 6
3 4 4 3 2 1 3 3 1 2 4 4 3 4 4 4 4 5 6 5 4 3 3 2 3 3 3 2 2 2 3 4 3 3 4 4 4 4 4 3 2 3 5 6 6 7 6 5 6
4 4 2 3 1 1 3 2 3 1 4 3 2 2 3 3 4 4 5 4 4 4 3 2 3 4 3 3 2 2 3 4 3 3 4 4 4 5 5 3 3 4 6 5 4 4 5 5 5
4 1 1 3 0 1 2 3 3 2 3 3 3 3 3 3 3 4 5 5 5 5 4 3 3 3 3 3 3 3 4 4 4 4 4 4 4 6 6 4 4 5 5 4 4 4 4 4 5
2 1 1 2 1 2 1 4 3 1 4 3 3 3 3 4 5 4 4 5 5 5 4 4 3 3 3 3 3 3 4 4 4 4 4 5 5 6 6 5 5 5 4 4 4 4 4 4 3
3 3 1 3 2 2 2 4 4 2 3 4 3 3 3 5 3 3 4 5 5 4 4 3 3 2 3 2 2 2 1 2 2 3 5 5 5 5 6 4 4 4 4 4 4 4 5 4 2
3 2 1 2 1 2 1 4 4 3 5 6 6 6 5 3 3 4 5 5 5 5 4 4 3 3 2 2 2 2 2 1 1 2 4 5 5 5 5 5 3 3 4 4 4 3 3 2 3
1 3 3 2 2 3 2 5 4 3 3 4 5 6 6 7 7 6 6 6 6 6 6 5 4 3 3 3 3 3 3 3 3 3 2 3 4 5 5 5 4 3 3 3 3 3 3 2 2
2 2 3 2 2 2 2 3 6 4 4 5 6 6 7 7 7 7 7 7 7 6 5 5 5 4 3 4 4 4 3 1 0 0 1 2 4 5 5 5 5 4 3 3 2 2 2 3 2
3 2 3 2 2 2 2 0 7 3 4 6 7 7 8 8 8 9 9 8 7 6 5 5 5 4 4 4 5 5 3 2 1 1 2 3 3 4 4 4 4 4 3 3 3 3 3 2 2
4 5 6 5 4 2 2 2 6 4 6 6 5 6 7 8 8 8 7 6 5 5 5 4 5 4 4 5 5 5 5 3 3 2 2 1 2 2 3 3 4 3 3 3 3 3 3 3 3
5 5 4 4 4 3 2 2 7 7 6 6 6 6 6 7 8 8 8 8 7 7 6 5 6 5 5 5 5 5 5 5 4 3 2 2 1 1 1 2 2 2 3 3 3 3 3 3 3
3 6 5 3 3 4 3 3 7 6 4 4 4 3 4 7 7 8 9 9 8 8 7 7 7 6 6 6 5 4 4 3 3 3 3 3 2 1 1 2 2 3 3 3 4 3 2 3 3
5 3 5 5 2 1 4 6 7 3 2 1 0 2 4 6 7 8 8 8 8 8 8 8 8 6 6 6 5 4 4 4 4 3 3 2 2 2 2 2 2 3 3 4 4 3 2 3 3
5 8 5 4 3 2 4 4 4 6 4 2 2 3 4 5 6 7 7 8 8 7 6 6 7 7 6 6 6 5 5 4 4 4 4 3 3 2 3 2 2 2 3 3 3 3 2 3 3
3 4 5 4 4 4 2 6 6 7 5 5 5 4 4 6 7 7 7 7 6 5 6 6 6 5 5 6 5 5 4 4 4 4 4 4 3 3 3 3 3 2 2 2 3 2 3 3 2
4 6 7 4 3 4 3 6 6 5 5 5 5 4 4 5 6 6 6 6 6 6 6 6 6 6 6 6 5 5 4 4 4 4 4 4 4 4 3 3 3 3 2 2 3 3 3 3 2
Wind_Direction
55 80 68 54 54 53 45 337 316 42 58 45 55 77 85 71 74 120 332 106 122 110 81 102 98 94 93 96 92 88 86 84 84 83 84 87 87 89 89 88 86 84 83 79 75 72 73 72 73
103 79 51 56 76 65 352 324 45 54 134 134 64 66 74 68 69 93 69 98 113 118 89 95 99 93 89 90 91 87 85 83 83 84 84 85 84 86 90 89 85 83 82 81 75 72 72 73 73
94 53 70 65 76 124 174 328 86 63 95 97 70 52 74 84 92 119 158 126 93 91 84 99 97 93 92 90 92 87 85 82 80 81 84 82 83 84 87 86 84 83 81 78 75 73 72 73 72
74 45 54 67 64 342 240 316 31 91 67 56 87 71 62 34 124 139 128 111 99 79 85 102 100 95 94 92 93 89 86 84 82 81 82 82 82 85 86 85 81 81 78 76 75 73 75 76 71
62 72 60 54 26 346 357 348 28 65 64 52 81 86 55 10 92 116 116 113 110 76 77 107 107 103 98 93 95 89 86 84 81 80 81 82 80 81 85 82 79 78 74 74 74 73 77 77 75
56 66 79 76 2 349 5 11 68 68 81 85 90 96 60 37 101 118 112 110 106 88 67 73 94 102 101 95 94 90 83 76 70 73 75 76 77 75 77 76 74 74 74 73 72 73 76 74 72
102 88 104 122 53 358 8 29 75 89 90 106 118 109 105 119 132 115 108 97 78 70 60 43 44 61 85 86 89 85 81 73 66 66 67 71 70 70 72 72 74 73 73 73 73 74 75 73 72
116 98 82 101 125 311 331 41 77 89 93 94 109 134 171 185 134 105 93 78 67 58 46 37 37 47 52 57 74 73 70 67 63 60 63 64 62 63 65 67 74 72 71 71 71 74 75 73 72
89 78 119 193 174 212 176 89 51 59 91 74 61 132 157 136 123 109 92 66 53 55 33 31 32 41 45 43 58 56 55 53 51 49 57 55 49 53 55 64 72 73 72 72 71 71 70 69 69
79 111 200 212 186 177 134 107 133 87 79 68 62 76 115 123 131 131 133 136 136 326 334 27 30 30 33 43 49 50 52 48 47 45 49 48 47 48 56 58 62 64 64 68 69 67 66 65 63
100 144 203 235 172 148 118 60 67 121 138 197 171 150 138 134 140 146 152 158 184 221 248 100 42 29 35 35 47 44 45 46 44 47 52 52 51 50 53 54 48 51 56 57 60 61 62 68 69
100 83 160 177 120 112 118 107 75 112 226 187 157 148 147 151 160 167 169 177 183 178 207 165 104 67 53 54 47 46 43 41 38 43 55 65 58 50 51 56 49 52 58 60 62 67 67 69 72
86 78 59 76 73 99 96 91 110 343 49 100 117 129 146 158 165 171 171 176 170 168 168 151 115 106 87 68 48 58 46 48 50 55 63 82 85 69 63 62 63 67 69 70 67 69 68 65 67
98 80 58 44 51 63 95 55 64 309 83 106 125 148 163 171 176 168 167 169 166 168 155 141 129 114 96 77 60 42 48 61 61 57 61 83 98 96 86 72 67 71 75 77 80 79 74 66 66
88 67 29 14 45 71 95 26 324 267 119 124 144 161 178 191 186 190 188 178 173 172 154 150 143 106 95 86 64 56 55 70 65 54 61 80 94 103 102 93 77 82 89 85 82 75 72 68 65
66 61 15 317 46 93 106 287 281 172 137 157 177 192 200 208 201 194 180 170 159 153 150 141 134 114 99 80 68 63 62 70 60 54 63 72 86 104 104 95 82 93 96 91 83 71 72 66 65
37 53 312 313 312 119 137 247 274 159 159 187 209 212 203 210 208 194 180 168 156 154 145 128 113 114 106 87 77 74 71 65 56 54 59 66 82 102 105 98 93 98 92 84 91 77 84 82 74
206 201 276 277 251 123 183 255 283 193 172 204 216 212 202 211 218 201 178 162 151 145 137 127 122 117 107 87 73 61 54 45 48 47 54 69 84 97 102 100 94 97 91 80 83 88 76 80 81
156 153 223 262 228 157 228 261 277 233 191 217 224 219 219 227 220 187 173 158 147 145 143 144 148 147 118 100 92 81 59 30 30 36 51 65 80 95 99 97 90 89 93 100 100 94 82 65 66
137 148 252 308 16 159 250 287 277 221 212 215 215 217 218 212 205 189 173 163 160 161 165 163 173 171 159 138 127 120 113 71 30 26 48 57 71 88 104 102 97 95 98 92 87 95 94 63 45
145 186 211 229 17 33 16 328 301 276 241 232 220 213 212 203 204 193 178 175 169 176 185 183 185 177 168 139 108 82 60 45 31 26 28 27 63 81 95 107 107 99 102 108 101 104 114 115 47
251 223 178 158 80 325 29 310 293 281 280 246 232 220 217 210 201 190 185 183 186 191 185 184 183 177 170 151 138 133 130 130 201 23 39 31 55 73 86 99 104 99 93 103 107 96 106 121 105
200 94 102 101 124 20 15 161 292 315 280 259 241 226 220 208 198 193 193 189 190 184 181 182 175 174 168 162 156 143 134 136 102 81 73 53 45 59 80 96 100 95 92 97 92 90 92 101 121
128 74 57 48 71 8 283 180 287 261 243 258 247 235 220 205 198 193 190 182 185 179 179 174 173 179 170 167 160 158 155 147 128 117 104 71 49 40 62 90 95 98 96 98 99 98 96 93 96
86 86 34 7 14 274 279 204 257 260 241 230 242 244 219 194 187 185 182 186 187 184 185 181 181 189 178 171 170 173 170 166 169 168 160 145 105 63 59 87 98 103 110 111 107 98 93 95 101
151 138 153 187 228 285 326 260 265 278 263 238 225 221 185 180 184 189 190 190 190 189 187 184 188 190 182 176 178 176 173 172 175 169 162 167 166 165 138 116 112 114 114 109 102 89 91 94 97
134 156 159 135 144 319 299 298 311 329 352 4 113 161 185 189 189 191 189 189 190 190 193 190 188 187 186 182 175 175 181 180 177 172 166 168 170 153 133 126 115 106 105 105 100 91 83 87 84
143 143 108 121 146 268 300 296 271 288 288 284 252 222 211 192 191 191 189 191 192 192 190 182 182 187 186 182 182 185 186 187 176 162 170 168 157 138 135 133 129 120 109 107 107 100 88 89 79
124 119 120 124 151 160 261 277 237 237 243 237 241 232 213 196 195 193 190 187 181 176 174 177 180 177 178 182 183 178 183 181 167 169 179 169 154 150 149 146 141 135 128 121 118 116 109 102 84
174 168 151 155 203 174 182 268 276 252 250 230 236 234 218 201 194 188 182 173 171 175 178 181 184 185 187 180 175 180 179 172 172 180 185 168 163 165 163 154 145 142 144 143 139 138 129 129 128
Height
1507 1507 1508 1509 1512 1521 1525 1522 1518 1517 1517 1517 1516 1517 1518 1521 1525 1530 1526 1524 1525 1525 1526 1526 1526 1526 1526 1526 1526 1526 1526 1526 1526 1526 1525 1525 1525 1526 1526 1526 1527 1527 1527 1527 1528 1528 1529 1529 1529
1508 1508 1510 1510 1519 1531 1528 1520 1519 1517 1517 1518 1518 1519 1520 1522 1523 1525 1525 1525 1526 1526 1527 1527 1527 1527 1527 1527 1527 1527 1527 1527 1527 1527 1527 1527 1527 1527 1527 1528 1528 1528 1528 1529 1529 1530 1530 1530 1531
1509 1509 1511 1514 1523 1530 1526 1520 1518 1518 1518 1518 1519 1520 1522 1524 1525 1525 1526 1526 1527 1527 1528 1528 1528 1528 1528 1528 1528 1528 1528 1528 1528 1528 1528 1528 1528 1528 1529 1529 1529 1529 1530 1530 1531 1531 1531 1531 1532
1510 1511 1513 1520 1526 1524 1521 1519 1518 1518 1519 1519 1520 1522 1524 1525 1526 1526 1527 1527 1528 1528 1529 1529 1529 1529 1529 1530 1530 1530 1530 1530 1530 1530 1529 1529 1530 1530 1530 1530 1530 1531 1531 1531 1532 1532 1532 1532 1533
1511 1512 1519 1526 1525 1522 1520 1519 1519 1519 1520 1521 1521 1523 1525 1527 1527 1527 1528 1528 1529 1529 1530 1530 1530 1530 1531 1531 1531 1531 1531 1531 1531 1531 1531 1531 1531 1531 1531 1532 1532 1532 1532 1532 1533 1533 1533 1534 1534
1512 1514 1527 1532 1527 1522 1520 1520 1519 1520 1521 1522 1522 1524 1526 1527 1528 1528 1529 1530 1530 1531 1531 1531 1531 1532 1532 1532 1533 1533 1533 1533 1533 1533 1532 1533 1533 1533 1533 1533 1533 1533 1533 1534 1534 1534 1535 1535 1535
1514 1519 1527 1528 1528 1525 1521 1520 1521 1521 1522 1523 1523 1525 1526 1528 1529 1529 1530 1531 1532 1532 1532 1533 1533 1533 1534 1534 1534 1534 1534 1534 1534 1534 1534 1534 1534 1534 1534 1534 1534 1535 1535 1535 1535 1535 1535 1536 1536
1513 1519 1526 1528 1528 1526 1522 1521 1522 1522 1523 1524 1524 1525 1526 1528 1529 1530 1531 1532 1533 1534 1534 1534 1535 1535 1535 1535 1536 1536 1536 1536 1536 1536 1536 1536 1536 1536 1536 1535 1536 1536 1536 1536 1536 1536 1536 1537 1537
1514 1524 1530 1527 1526 1524 1522 1522 1523 1523 1523 1524 1524 1525 1526 1528 1529 1531 1532 1533 1534 1535 1535 1536 1536 1536 1537 1537 1537 1538 1538 1538 1538 1538 1538 1538 1537 1537 1537 1537 1537 1537 1537 1538 1538 1538 1538 1538 1538
1515 1526 1525 1521 1521 1521 1521 1522 1523 1524 1524 1525 1525 1526 1526 1528 1530 1531 1532 1534 1535 1536 1537 1537 1538 1538 1539 1539 1539 1540 1540 1540 1540 1540 1539 1539 1539 1539 1539 1539 1539 1539 1539 1539 1539 1539 1539 1539 1540
1517 1522 1520 1520 1520 1520 1521 1523 1523 1524 1525 1525 1525 1526 1527 1529 1530 1532 1534 1535 1536 1537 1538 1539 1539 1540 1540 1541 1541 1541 1541 1542 1542 1541 1541 1541 1541 1541 1540 1540 1540 1540 1540 1540 1541 1541 1541 1541 1541
1518 1520 1520 1520 1520 1521 1522 1523 1524 1524 1525 1525 1525 1526 1528 1529 1531 1533 1534 1535 1537 1538 1539 1540 1540 1541 1542 1542 1543 1543 1543 1543 1543 1543 1543 1543 1542 1542 1542 1542 1542 1542 1542 1542 1542 1542 1542 1542 1543
1519 1520 1520 1520 1520 1521 1522 1523 1524 1524 1524 1525 1526 1527 1529 1530 1532 1534 1535 1536 1537 1538 1539 1540 1541 1542 1543 1543 1544 1544 1544 1544 1545 1545 1544 1544 1544 1544 1544 1544 1544 1544 1544 1544 1544 1544 1544 1544 1544
1520 1520 1521 1521 1521 1522 1523 1525 1525 1525 1525 1525 1526 1528 1529 1531 1533 1534 1535 1536 1537 1539 1540 1541 1542 1543 1544 1545 1545 1545 1546 1546 1546 1546 1546 1545 1545 1545 1545 1545 1545 1545 1545 1546 1546 1546 1546 1546 1546
1520 1522 1523 1523 1523 1524 1525 1528 1526 1525 1525 1526 1527 1528 1530 1531 1532 1534 1535 1536 1537 1539 1540 1542 1543 1544 1545 1546 1546 1546 1547 1547 1547 1547 1547 1547 1547 1547 1546 1546 1546 1547 1547 1547 1547 1547 1547 1547 1547
1522 1527 1531 1526 1524 1524 1529 1534 1526 1525 1525 1526 1527 1528 1529 1531 1532 1533 1535 1536 1537 1539 1540 1542 1543 1544 1545 1546 1547 1547 1547 1547 1548 1548 1548 1548 1548 1548 1548 1548 1548 1548 1548 1548 1548 1549 1549 1549 1549
1529 1534 1533 1529 1525 1525 1528 1531 1526 1525 1525 1526 1527 1528 1529 1530 1532 1533 1535 1536 1538 1539 1540 1542 1543 1545 1546 1547 1547 1548 1548 1548 1549 1549 1549 1549 1549 1549 1549 1549 1549 1549 1549 1549 1550 1550 1550 1550 1550
1534 1534 1533 1531 1526 1526 1529 1529 1525 1525 1525 1526 1526 1527 1528 1530 1531 1533 1535 1536 1538 1539 1541 1543 1544 1545 1546 1547 1548 1548 1549 1549 1549 1550 1550 1550 1550 1550 1550 1550 1550 1550 1550 1551 1551 1551 1551 1551 1552
1526 1530 1533 1530 1525 1527 1529 1528 1525 1524 1525 1526 1526 1527 1527 1528 1531 1533 1534 1536 1538 1540 1541 1543 1544 1545 1546 1547 1548 1549 1549 1550 1550 1550 1550 1550 1551 1551 1551 1551 1551 1551 1551 1552 1552 1552 1552 1552 1552
1526 1531 1532 1528 1524 1527 1530 1529 1524 1523 1523 1524 1524 1525 1526 1528 1530 1531 1533 1536 1538 1540 1541 1543 1545 1546 1547 1548 1548 1549 1550 1550 1551 1551 1551 1551 1551 1552 1552 1552 1552 1552 1552 1553 1553 1553 1553 1553 1553
1527 1530 1530 1530 1527 1527 1530 1532 1527 1523 1522 1522 1523 1523 1525 1526 1528 1530 1532 1535 1537 1539 1541 1543 1544 1546 1547 1548 1549 1549 1550 1551 1551 1551 1551 1552 1552 1552 1552 1553 1553 1553 1553 1553 1554 1554 1554 1554 1554
1530 1523 1525 1528 1534 1539 1535 1546 1531 1525 1523 1521 1521 1521 1522 1525 1527 1529 1531 1533 1536 1538 1540 1542 1544 1545 1547 1548 1549 1549 1550 1551 1551 1551 1552 1552 1553 1553 1553 1553 1554 1554 1554 1554 1554 1554 1555 1555 1555
1524 1521 1524 1528 1533 1540 1539 1544 1537 1527 1524 1520 1518 1519 1520 1522 1524 1527 1529 1532 1535 1537 1540 1542 1544 1545 1546 1547 1548 1549 1550 1551 1551 1552 1552 1553 1553 1553 1554 1554 1554 1555 1555 1555 1555 1555 1555 1555 1555
1520 1525 1529 1535 1540 1549 1541 1545 1541 1529 1522 1517 1515 1516 1517 1519 1522 1525 1528 1531 1534 1537 1539 1541 1542 1544 1546 1547 1548 1549 1550 1551 1551 1552 1552 1553 1553 1554 1554 1554 1555 1555 1555 1555 1556 1556 1556 1556 1556
1523 1535 1549 1551 1556 1552 1539 1541 1536 1518 1515 1514 1513 1513 1514 1517 1520 1523 1526 1529 1532 1535 1537 1539 1541 1543 1545 1546 1548 1549 1550 1551 1551 1552 1552 1553 1553 1554 1554 1555 1555 1555 1556 1556 1556 1556 1556 1556 1556
1525 1532 1549 1557 1558 1553 1541 1541 1527 1513 1511 1511 1511 1512 1513 1515 1518 1521 1524 1527 1530 1533 1536 1538 1540 1542 1544 1545 1547 1548 1549 1550 1551 1552 1552 1553 1553 1554 1554 1555 1555 1556 1556 1557 1557 1557 1557 1557 1557
1526 1532 1532 1545 1548 1553 1546 1535 1522 1512 1511 1510 1510 1511 1513 1514 1517 1520 1523 1526 1528 1531 1534 1536 1538 1540 1542 1544 1546 1547 1549 1550 1551 1551 1552 1552 1553 1554 1554 1555 1555 1556 1556 1557 1557 1557 1557 1557 1557
1519 1526 1537 1544 1553 1557 1547 1540 1534 1518 1514 1511 1511 1511 1512 1514 1516 1518 1521 1524 1527 1529 1532 1535 1537 1539 1541 1543 1544 1546 1547 1549 1550 1550 1551 1552 1553 1553 1554 1555 1555 1556 1557 1557 1558 1558 1558 1558 1558
1523 1527 1533 1542 1544 1554 1555 1544 1518 1514 1511 1511 1510 1510 1511 1512 1514 1517 1519 1522 1525 1528 1530 1533 1535 1537 1539 1541 1543 1545 1546 1547 1549 1549 1550 1551 1552 1553 1554 1554 1555 1556 1557 1557 1557 1558 1558 1558 1558
1515 1521 1529 1539 1544 1546 1550 1541 1510 1509 1508 1508 1508 1509 1510 1511 1513 1515 1518 1521 1523 1526 1528 1531 1533 1536 1538 1539 1541 1543 1544 1546 1547 1548 1549 1551 1552 1552 1553 1554 1555 1556 1556 1557 1557 1557 1558 1558 1558